Temp
77 75 77 77 79 79 78 79 79 79 81 81 79 80 80 80 79 79 79 79 80 81 80 79 77 78 79 80 78 78 77 76 75 71 71 74 72 72 73 70 66 70 72 71 72 70 67 65 67 74 75 74 74 75 77 77 77 75 75 77 79 79 77
77 77 78 79 78 78 77 78 79 81 80 80 80 79 79 80 79 79 79 79 79 80 82 81 79 79 77 76 75 75 75 75 75 73 72 73 73 74 71 72 72 69 69 71 70 68 65 68 67 68 68 72 73 74 75 76 77 76 77 78 79 79 77
77 77 78 76 76 76 75 76 77 78 78 77 78 79 79 81 79 79 78 78 78 79 79 80 78 77 76 75 75 75 75 74 74 73 72 74 74 74 73 73 72 69 67 65 69 63 71 74 68 68 69 68 67 70 74 75 77 78 79 78 78 80 78
76 76 75 74 76 75 74 75 76 77 78 77 77 77 78 78 78 78 77 78 78 77 78 79 77 77 76 76 76 75 74 73 73 73 72 72 71 73 72 73 71 73 71 69 69 71 73 71 70 69 71 74 70 68 72 77 78 80 80 79 78 78 77
76 76 75 74 75 75 75 75 76 77 76 77 77 76 76 77 77 77 77 78 78 77 76 77 77 77 77 77 76 74 74 73 73 73 72 72 73 73 74 74 75 76 75 75 76 76 75 73 72 71 72 74 74 74 76 75 79 79 80 80 81 78 78
76 76 76 75 76 76 76 76 75 75 76 75 76 75 75 76 77 76 77 77 76 76 77 77 76 76 76 76 76 75 74 73 73 73 72 72 73 73 74 76 78 78 76 78 78 78 78 76 74 73 75 77 71 72 76 77 76 80 80 79 80 80 79
76 76 77 76 76 77 77 76 76 76 76 75 75 75 76 77 77 76 76 76 76 76 76 76 77 77 76 76 75 74 74 73 74 73 73 74 74 75 77 77 77 77 76 78 77 77 76 76 74 74 72 73 73 74 77 77 78 76 77 80 80 80 78
77 77 77 77 77 76 77 76 77 77 76 76 76 75 76 76 76 76 76 75 76 76 76 76 76 76 77 78 77 75 75 76 75 75 74 74 74 75 75 76 76 76 77 79 79 79 80 78 77 75 74 68 70 73 73 77 76 74 74 77 80 78 77
77 77 77 77 77 77 76 76 76 76 76 76 76 75 75 76 75 75 76 76 76 76 76 77 77 77 76 76 76 75 74 77 74 74 74 74 72 73 74 76 77 77 77 79 80 79 81 79 78 77 76 73 69 66 70 70 72 72 77 75 77 78 78
76 75 75 74 75 76 76 75 75 76 76 75 75 75 75 76 76 76 75 75 75 75 75 75 76 76 76 75 74 74 74 76 75 75 74 73 74 74 74 75 75 76 76 76 77 77 77 78 78 78 79 76 75 70 67 66 67 68 73 77 74 75 78
75 74 73 73 74 74 74 73 73 74 74 75 75 75 75 75 75 75 75 75 75 75 75 76 77 76 76 75 75 75 75 75 74 74 74 75 74 75 75 76 76 75 76 76 75 76 76 77 77 78 78 79 76 71 71 68 66 71 70 74 76 75 77
75 74 74 73 73 72 72 72 73 72 73 74 73 73 74 75 75 75 75 75 75 74 75 75 76 75 76 74 74 74 74 75 74 73 74 74 74 74 73 73 75 74 75 74 75 76 76 77 77 78 78 77 75 74 73 71 66 68 73 69 72 77 76
76 75 74 72 72 73 73 72 72 72 72 73 72 73 74 75 76 75 75 75 75 75 75 75 76 75 75 74 75 75 74 75 75 74 74 75 77 75 74 74 74 75 75 77 76 76 76 77 77 78 77 76 75 74 74 72 69 65 71 71 72 74 75
74 75 75 74 73 73 73 72 71 72 74 73 73 74 75 76 76 76 76 76 76 75 75 74 75 75 75 75 75 75 76 77 76 75 75 74 76 76 76 75 74 74 76 75 75 76 77 77 77 77 77 77 75 75 74 71 68 66 68 72 72 74 75
75 75 74 73 73 73 73 71 71 72 72 73 74 76 77 76 77 77 77 77 76 76 76 76 76 75 75 73 73 75 75 76 76 75 74 75 75 75 74 75 75 74 76 76 75 79 78 78 78 78 77 76 76 74 75 74 70 68 65 69 71 75 73
76 74 73 73 73 74 73 72 73 72 73 74 76 77 77 76 77 78 77 77 77 77 76 76 75 75 74 74 74 74 75 75 74 73 73 74 76 75 74 73 73 73 74 73 73 75 76 77 79 79 76 77 75 75 77 76 73 68 67 68 71 72 72
75 75 74 74 74 74 74 74 75 74 76 76 77 77 77 78 76 76 76 76 76 76 76 75 75 76 76 75 75 74 74 74 74 74 74 76 77 75 74 73 73 73 73 72 74 74 75 76 75 76 75 75 74 74 73 73 73 72 70 68 70 74 74
74 73 73 74 74 74 75 75 76 77 76 76 77 77 77 78 77 76 74 75 75 75 75 75 74 75 74 74 75 74 74 74 74 74 75 75 73 75 74 73 74 74 73 72 72 73 75 73 77 76 75 76 76 74 73 73 75 74 71 69 69 72 73
72 71 72 74 74 74 74 75 76 77 78 77 77 76 76 77 78 77 77 77 77 76 76 75 75 75 75 74 73 73 74 74 74 75 74 75 75 75 74 74 74 74 74 72 72 73 73 73 74 74 75 76 77 74 72 73 73 72 72 71 70 69 71
70 69 72 74 74 75 75 75 76 77 78 77 76 76 77 77 77 78 78 77 77 77 77 77 76 75 76 75 75 75 74 74 74 74 75 75 76 76 75 75 75 74 74 73 72 71 72 72 71 71 72 72 75 74 71 72 74 73 71 70 70 70 69
70 70 73 75 75 75 75 75 76 77 77 76 76 76 76 76 77 78 78 78 78 77 77 77 77 76 77 75 74 74 74 72 74 73 74 75 75 75 75 75 75 75 74 74 73 72 72 71 71 70 71 72 72 71 71 71 70 71 70 69 69 68 69
74 75 74 74 74 74 75 75 76 76 76 76 75 77 77 77 77 77 78 77 78 77 76 75 76 75 75 74 74 73 73 72 73 73 70 69 71 72 71 71 71 74 71 62 54 58 58 60 69 69 70 71 71 70 69 70 70 70 70 69 68 69 68
74 75 74 74 74 74 74 74 74 75 75 76 77 76 77 77 77 76 76 77 77 75 74 74 68 61 64 74 73 73 71 71 71 71 70 70 69 69 70 70 69 63 57 58 58 54 54 52 53 62 68 69 69 69 69 68 68 69 69 68 69 69 67
75 74 74 73 73 73 74 73 72 73 74 75 74 75 75 76 75 76 76 76 75 73 73 70 48 48 50 56 68 68 67 66 66 67 68 67 67 67 70 72 66 61 61 60 64 51 51 51 52 50 48 49 54 65 69 66 67 68 68 67 69 68 67
75 75 73 73 72 72 73 72 71 71 71 72 72 74 73 74 74 74 74 75 73 72 73 53 45 45 47 50 56 68 66 65 63 63 63 65 67 67 67 69 66 62 68 69 71 67 57 47 47 47 47 46 43 40 44 62 65 66 66 66 66 66 67
76 75 75 75 72 72 72 70 70 70 70 70 71 71 72 71 72 73 73 73 73 72 73 48 46 44 45 45 48 60 71 69 68 66 66 67 67 68 66 64 67 70 69 58 65 70 70 59 44 41 42 41 42 43 43 42 48 60 64 65 64 65 66
74 74 75 74 74 73 72 72 71 70 70 69 69 69 70 70 71 72 71 72 72 73 72 49 46 44 44 43 45 52 71 70 69 69 68 69 68 66 64 62 67 69 70 70 70 69 72 65 61 59 60 62 63 51 45 45 44 47 57 64 64 64 64
73 72 72 74 73 73 72 72 72 71 71 70 67 67 65 67 67 68 70 71 70 70 72 47 45 44 43 43 43 48 67 68 68 68 69 68 65 65 67 67 69 70 69 68 64 56 67 67 65 64 63 64 64 63 64 63 63 65 66 66 67 66 65
72 73 73 73 72 72 72 71 70 71 70 70 70 69 68 66 65 66 67 69 68 68 69 44 45 44 43 43 41 57 64 64 66 68 68 68 68 68 69 69 69 69 68 65 50 41 49 62 67 65 63 65 64 60 56 47 41 45 54 60 61 61 60
70 71 71 71 72 72 71 71 71 72 70 69 68 68 65 65 65 63 64 68 68 67 64 46 44 44 44 42 46 60 63 65 66 65 66 68 70 70 68 67 70 68 66 64 45 42 46 45 68 66 65 63 62 62 58 55 44 40 40 40 39 38 39
70 69 70 70 70 70 71 72 72 72 71 70 69 69 70 67 65 67 69 68 67 63 60 53 42 44 43 43 51 63 66 67 67 68 66 68 69 66 58 44 57 68 64 62 40 42 39 52 67 66 64 62 61 61 59 58 57 52 40 40 40 40 42
68 68 68 68 68 68 70 70 72 72 71 71 69 71 71 67 64 69 70 69 57 58 60 53 41 42 43 42 53 67 69 68 66 67 65 67 67 65 62 53 44 53 58 49 37 41 38 51 67 66 65 64 62 62 61 61 60 58 57 57 56 53 51
68 67 67 67 68 68 69 70 70 71 71 72 72 71 71 71 69 69 69 68 63 60 59 60 49 41 43 43 48 66 71 69 68 66 66 66 65 65 63 60 50 39 39 38 39 40 41 42 62 67 66 65 64 63 62 62 59 61 62 61 62 61 61
66 66 67 66 67 67 69 69 69 70 70 70 70 70 70 69 69 69 69 67 67 65 64 62 54 42 42 43 45 50 69 68 68 67 67 66 66 63 64 63 58 40 38 39 40 40 42 43 47 61 59 57 56 53 56 62 55 49 59 60 60 59 60
65 65 66 66 66 66 68 69 68 69 70 69 68 67 69 69 68 68 68 67 66 62 61 55 59 43 41 42 44 40 49 55 60 64 65 66 65 64 63 60 57 44 38 40 40 41 41 44 46 57 50 41 38 41 58 61 62 61 61 61 61 61 61
63 65 65 65 65 64 66 67 68 68 68 67 67 66 66 67 67 65 64 65 65 65 64 55 47 49 42 43 43 44 40 43 44 57 62 65 65 64 61 56 49 39 39 40 40 41 42 42 46 49 39 41 41 36 45 62 61 60 60 60 59 58 59
63 64 64 65 65 64 65 66 66 67 68 68 68 67 67 66 65 64 63 62 62 63 61 58 47 46 47 42 42 42 41 41 41 58 67 66 65 61 57 54 48 38 39 38 38 40 40 44 47 38 40 38 39 43 57 60 59 60 59 56 56 57 58
MSLP
1015.97 1016.33 1016.13 1016.05 1015.89 1015.89 1016.17 1016.21 1016.17 1016.25 1016.13 1016.13 1016.41 1016.37 1016.37 1016.37 1016.49 1016.53 1016.49 1016.53 1016.49 1016.53 1016.73 1017.01 1017.29 1017.13 1017.01 1016.93 1017.09 1017.13 1017.33 1017.61 1017.97 1018.73 1018.77 1018.57 1018.97 1019.01 1018.93 1019.65 1020.33 1019.73 1019.73 1019.97 1020.05 1020.37 1020.89 1021.45 1021.45 1020.53 1020.49 1020.53 1020.41 1020.33 1020.21 1020.25 1020.33 1020.49 1020.49 1020.17 1020.09 1020.25 1020.41
1016.09 1016.21 1016.09 1016.09 1016.25 1016.29 1016.49 1016.33 1016.17 1016.17 1016.29 1016.33 1016.41 1016.65 1016.57 1016.53 1016.61 1016.69 1016.69 1016.73 1016.65 1016.53 1016.41 1016.89 1017.09 1017.21 1017.33 1017.45 1017.49 1017.57 1017.77 1017.81 1017.93 1018.37 1018.61 1018.69 1018.85 1018.69 1019.21 1019.21 1019.37 1020.09 1020.01 1019.93 1020.25 1020.73 1021.37 1020.93 1021.21 1021.37 1021.45 1021.01 1020.77 1020.73 1020.57 1020.41 1020.45 1020.45 1020.41 1020.37 1020.21 1020.25 1020.53
1016.09 1016.13 1016.09 1016.53 1016.65 1016.65 1016.81 1016.77 1016.69 1016.69 1016.73 1016.81 1016.73 1016.65 1016.65 1016.49 1016.61 1016.73 1016.89 1017.05 1016.97 1016.77 1016.69 1016.89 1017.13 1017.45 1017.49 1017.57 1017.65 1017.77 1017.89 1018.09 1018.13 1018.37 1018.65 1018.57 1018.61 1018.53 1018.73 1018.81 1019.17 1019.97 1020.49 1020.97 1020.41 1021.05 1020.37 1019.73 1020.81 1021.25 1021.29 1021.45 1021.73 1021.37 1020.77 1020.69 1020.49 1020.37 1020.29 1020.37 1020.37 1020.41 1020.57
1016.29 1016.33 1016.57 1016.81 1016.73 1016.85 1017.05 1017.05 1016.93 1016.89 1016.77 1016.93 1017.01 1017.05 1016.93 1016.89 1016.97 1016.97 1017.09 1017.13 1017.09 1017.09 1017.13 1017.13 1017.29 1017.41 1017.53 1017.61 1017.73 1017.85 1018.05 1018.29 1018.41 1018.53 1018.69 1018.93 1019.01 1018.73 1018.89 1018.89 1019.33 1019.17 1019.53 1020.13 1020.29 1020.21 1019.57 1019.89 1020.41 1020.85 1020.65 1020.65 1021.41 1021.77 1021.17 1020.53 1020.25 1020.17 1020.25 1020.45 1020.65 1020.73 1020.85
1016.41 1016.49 1016.69 1016.85 1016.89 1016.97 1017.01 1017.09 1016.97 1017.01 1017.09 1017.13 1017.13 1017.29 1017.29 1017.13 1017.21 1017.21 1017.13 1017.05 1017.17 1017.29 1017.41 1017.41 1017.45 1017.53 1017.49 1017.57 1017.81 1018.01 1018.25 1018.37 1018.53 1018.65 1018.77 1018.85 1018.85 1018.93 1018.85 1018.77 1018.89 1018.89 1019.09 1019.21 1019.17 1019.13 1019.09 1019.81 1020.05 1020.49 1020.45 1020.61 1020.73 1020.97 1020.97 1020.81 1020.45 1020.57 1020.53 1020.45 1020.49 1020.89 1021.05
1016.29 1016.41 1016.61 1016.77 1016.73 1016.89 1016.97 1017.09 1017.17 1017.21 1017.29 1017.41 1017.41 1017.49 1017.53 1017.37 1017.29 1017.33 1017.25 1017.29 1017.45 1017.53 1017.49 1017.49 1017.61 1017.69 1017.73 1017.77 1017.85 1018.09 1018.25 1018.41 1018.49 1018.57 1018.73 1018.93 1018.97 1019.05 1019.09 1018.85 1018.73 1018.81 1019.01 1018.77 1018.73 1018.93 1018.89 1019.25 1019.73 1020.09 1020.01 1019.97 1021.01 1021.13 1020.93 1020.77 1020.89 1020.53 1020.53 1020.77 1020.73 1020.89 1021.05
1016.29 1016.37 1016.49 1016.73 1016.77 1016.77 1016.85 1017.09 1017.09 1017.17 1017.29 1017.49 1017.61 1017.65 1017.49 1017.33 1017.37 1017.41 1017.45 1017.49 1017.53 1017.61 1017.69 1017.73 1017.69 1017.65 1017.73 1017.97 1018.09 1018.21 1018.41 1018.57 1018.49 1018.69 1018.85 1018.97 1018.97 1018.97 1018.81 1018.89 1018.85 1019.01 1019.17 1019.09 1019.17 1019.17 1019.37 1019.57 1019.85 1019.85 1020.29 1020.45 1020.65 1020.69 1020.53 1020.49 1020.53 1020.97 1021.17 1020.93 1020.97 1021.13 1021.41
1016.21 1016.33 1016.41 1016.61 1016.81 1016.97 1016.93 1017.05 1017.01 1017.05 1017.29 1017.53 1017.65 1017.65 1017.57 1017.69 1017.69 1017.65 1017.69 1017.73 1017.81 1017.81 1017.81 1017.85 1017.89 1017.89 1017.73 1017.85 1018.17 1018.25 1018.33 1018.33 1018.53 1018.69 1018.89 1019.05 1019.21 1019.25 1019.29 1019.29 1019.37 1019.33 1019.29 1019.17 1019.21 1019.09 1019.09 1019.29 1019.49 1019.89 1020.29 1021.37 1021.21 1020.57 1020.69 1020.53 1020.97 1021.33 1021.61 1021.41 1021.13 1021.37 1021.65
1016.17 1016.33 1016.53 1016.69 1016.89 1016.93 1017.05 1017.09 1017.21 1017.17 1017.29 1017.53 1017.69 1017.77 1017.81 1017.81 1017.93 1017.93 1017.89 1017.97 1017.93 1017.97 1017.97 1017.97 1017.97 1018.13 1018.17 1018.29 1018.45 1018.49 1018.61 1018.61 1018.89 1018.97 1019.13 1019.33 1019.57 1019.53 1019.49 1019.33 1019.29 1019.49 1019.41 1019.37 1019.17 1019.33 1019.05 1019.25 1019.45 1019.89 1020.13 1020.61 1021.25 1021.89 1021.37 1021.53 1021.37 1021.69 1021.13 1021.49 1021.57 1021.49 1021.61
1016.45 1016.65 1016.85 1017.09 1017.21 1017.17 1017.17 1017.25 1017.37 1017.41 1017.49 1017.65 1017.89 1017.89 1017.97 1017.93 1017.93 1017.97 1018.09 1018.17 1018.21 1018.21 1018.29 1018.29 1018.33 1018.41 1018.41 1018.57 1018.77 1018.81 1018.81 1018.77 1018.89 1019.17 1019.25 1019.49 1019.61 1019.65 1019.69 1019.65 1019.73 1019.77 1019.81 1019.77 1019.73 1019.85 1019.73 1019.57 1019.69 1019.85 1019.81 1020.13 1020.13 1021.17 1021.81 1022.21 1022.21 1022.13 1021.73 1021.21 1021.73 1021.85 1021.65
1016.57 1016.77 1017.01 1017.33 1017.41 1017.53 1017.53 1017.61 1017.69 1017.77 1017.77 1017.81 1017.89 1017.93 1018.05 1018.21 1018.25 1018.25 1018.33 1018.37 1018.41 1018.41 1018.41 1018.37 1018.45 1018.57 1018.61 1018.77 1018.85 1018.93 1019.05 1019.09 1019.25 1019.33 1019.45 1019.57 1019.73 1019.73 1019.73 1019.65 1019.69 1019.97 1019.97 1020.01 1020.25 1020.17 1020.17 1020.09 1020.09 1020.13 1019.89 1019.65 1020.05 1020.65 1020.81 1021.57 1022.37 1021.81 1022.17 1021.81 1021.49 1021.85 1021.77
1016.57 1016.85 1017.13 1017.37 1017.61 1017.81 1017.93 1017.93 1017.97 1018.05 1018.05 1018.01 1018.09 1018.09 1018.09 1018.17 1018.29 1018.37 1018.41 1018.53 1018.61 1018.69 1018.69 1018.73 1018.65 1018.69 1018.81 1019.09 1019.17 1019.25 1019.21 1019.21 1019.41 1019.65 1019.73 1019.89 1019.97 1020.05 1020.25 1020.29 1020.21 1020.37 1020.41 1020.45 1020.45 1020.45 1020.41 1020.33 1020.33 1020.13 1020.17 1020.21 1020.53 1020.33 1020.69 1021.33 1022.41 1022.33 1021.77 1022.49 1022.29 1021.89 1022.05
1016.53 1016.81 1017.13 1017.45 1017.69 1017.85 1017.93 1018.09 1018.21 1018.25 1018.17 1018.13 1018.17 1018.09 1018.09 1018.21 1018.33 1018.41 1018.45 1018.61 1018.73 1018.73 1018.81 1018.77 1018.77 1018.85 1018.93 1019.09 1019.13 1019.29 1019.41 1019.41 1019.57 1019.81 1019.89 1019.85 1019.93 1020.21 1020.37 1020.45 1020.45 1020.49 1020.45 1020.37 1020.53 1020.57 1020.53 1020.41 1020.25 1020.33 1020.53 1020.73 1020.85 1020.89 1021.01 1021.37 1021.89 1022.81 1022.25 1022.29 1022.37 1022.29 1022.25
1016.61 1016.77 1017.09 1017.33 1017.57 1017.81 1017.97 1018.09 1018.25 1018.33 1018.13 1018.21 1018.21 1018.09 1018.13 1018.25 1018.33 1018.37 1018.45 1018.57 1018.69 1018.85 1018.93 1018.97 1018.89 1018.93 1019.01 1019.13 1019.25 1019.37 1019.37 1019.41 1019.61 1019.77 1019.93 1020.05 1020.01 1020.09 1020.17 1020.49 1020.73 1020.77 1020.57 1020.57 1020.69 1020.65 1020.61 1020.69 1020.65 1020.65 1020.69 1020.81 1021.05 1021.09 1021.17 1021.65 1022.29 1022.81 1022.77 1022.41 1022.37 1022.25 1022.33
1016.57 1016.69 1017.05 1017.33 1017.57 1017.85 1018.09 1018.25 1018.33 1018.41 1018.37 1018.29 1018.17 1018.05 1018.05 1018.17 1018.29 1018.29 1018.41 1018.57 1018.69 1018.77 1018.85 1018.97 1018.97 1018.97 1019.17 1019.41 1019.53 1019.49 1019.49 1019.49 1019.61 1019.93 1020.01 1020.09 1020.25 1020.29 1020.45 1020.53 1020.73 1020.89 1020.77 1020.77 1020.77 1020.41 1020.65 1020.65 1020.61 1020.57 1020.81 1020.85 1021.05 1021.33 1021.09 1021.33 1022.13 1022.45 1023.05 1022.85 1022.61 1022.33 1022.53
1016.53 1016.77 1017.05 1017.29 1017.49 1017.65 1018.01 1018.17 1018.25 1018.33 1018.25 1018.21 1017.97 1017.89 1018.01 1018.21 1018.25 1018.25 1018.41 1018.53 1018.61 1018.73 1018.81 1018.97 1018.97 1019.09 1019.33 1019.49 1019.65 1019.69 1019.61 1019.69 1019.97 1020.17 1020.25 1020.29 1020.29 1020.49 1020.73 1020.81 1021.01 1021.13 1021.13 1021.17 1021.13 1020.77 1020.69 1020.65 1020.29 1020.21 1020.73 1020.77 1021.17 1021.37 1021.21 1021.21 1021.49 1022.29 1022.81 1022.85 1022.69 1022.57 1022.53
1016.53 1016.69 1016.93 1017.05 1017.37 1017.57 1017.73 1017.97 1017.97 1018.09 1017.93 1017.97 1018.01 1017.89 1018.01 1018.13 1018.25 1018.33 1018.41 1018.45 1018.57 1018.69 1018.81 1019.01 1019.09 1019.09 1019.21 1019.37 1019.57 1019.73 1019.77 1019.89 1020.01 1020.09 1020.13 1020.17 1020.21 1020.57 1020.77 1021.01 1021.09 1021.21 1021.29 1021.45 1021.25 1021.13 1021.05 1020.89 1020.97 1020.69 1021.13 1021.29 1021.53 1021.73 1021.77 1021.81 1021.73 1021.57 1022.41 1022.65 1022.57 1022.05 1022.25
1016.57 1016.77 1016.93 1016.97 1017.21 1017.37 1017.53 1017.65 1017.69 1017.69 1017.77 1017.89 1017.97 1018.05 1018.13 1018.13 1018.37 1018.49 1018.65 1018.65 1018.73 1018.81 1018.93 1019.05 1019.13 1019.21 1019.37 1019.41 1019.45 1019.65 1019.77 1019.89 1020.01 1020.01 1020.05 1020.09 1020.21 1020.37 1020.77 1020.93 1020.97 1021.09 1021.33 1021.45 1021.45 1021.33 1021.13 1021.33 1020.85 1020.85 1021.17 1021.05 1021.21 1021.57 1021.77 1021.77 1021.41 1021.49 1021.93 1022.13 1022.41 1022.33 1022.33
1016.85 1017.09 1017.13 1017.05 1017.09 1017.25 1017.45 1017.53 1017.53 1017.49 1017.57 1017.77 1017.89 1018.09 1018.17 1018.17 1018.25 1018.41 1018.57 1018.57 1018.65 1018.77 1018.85 1018.97 1019.13 1019.25 1019.41 1019.53 1019.61 1019.69 1019.69 1019.89 1019.97 1020.01 1020.13 1020.17 1020.29 1020.41 1020.65 1020.77 1020.85 1020.97 1021.17 1021.41 1021.37 1021.29 1021.21 1021.41 1021.29 1021.17 1021.17 1021.05 1020.77 1021.29 1021.65 1021.73 1021.85 1021.81 1021.89 1021.85 1022.21 1022.33 1022.37
1017.01 1017.37 1017.17 1016.97 1017.05 1017.21 1017.41 1017.45 1017.45 1017.45 1017.41 1017.57 1017.81 1018.01 1018.05 1018.09 1018.13 1018.09 1018.17 1018.25 1018.37 1018.53 1018.57 1018.77 1018.89 1019.05 1019.17 1019.33 1019.49 1019.61 1019.77 1019.81 1019.97 1019.93 1019.97 1020.09 1020.17 1020.29 1020.53 1020.61 1020.73 1020.85 1021.05 1021.17 1021.33 1021.45 1021.49 1021.57 1021.65 1021.65 1021.61 1021.53 1021.41 1021.37 1021.85 1021.81 1021.57 1021.77 1022.09 1022.21 1022.17 1022.29 1022.45
1017.21 1017.33 1016.89 1016.93 1017.05 1017.13 1017.25 1017.33 1017.37 1017.25 1017.29 1017.53 1017.69 1017.81 1017.93 1017.93 1017.97 1017.89 1017.89 1018.01 1018.09 1018.21 1018.41 1018.61 1018.69 1018.89 1018.97 1019.17 1019.37 1019.61 1019.77 1020.01 1019.97 1020.21 1020.09 1020.13 1020.13 1020.21 1020.37 1020.49 1020.65 1020.81 1020.93 1021.01 1021.17 1021.25 1021.37 1021.57 1021.61 1021.85 1021.73 1021.73 1021.73 1021.81 1021.97 1021.93 1021.97 1021.93 1021.93 1022.17 1022.41 1022.53 1022.33
1016.49 1016.49 1016.81 1016.93 1017.01 1017.09 1017.13 1017.17 1017.21 1017.29 1017.33 1017.45 1017.57 1017.65 1017.61 1017.65 1017.85 1017.93 1017.81 1017.89 1017.97 1018.13 1018.33 1018.49 1018.61 1018.81 1018.97 1019.29 1019.45 1019.73 1019.81 1020.17 1020.09 1020.13 1020.57 1020.89 1020.65 1020.69 1020.89 1021.01 1020.97 1020.89 1020.93 1021.17 1021.29 1021.41 1021.57 1021.69 1021.73 1021.81 1021.73 1021.81 1021.89 1022.05 1022.13 1022.13 1021.97 1022.01 1021.97 1022.13 1022.21 1022.05 1022.21
1016.45 1016.45 1016.61 1016.85 1017.01 1017.13 1017.29 1017.33 1017.33 1017.37 1017.41 1017.37 1017.41 1017.53 1017.53 1017.53 1017.61 1017.81 1017.85 1017.93 1017.97 1018.17 1018.45 1018.53 1018.65 1018.85 1018.89 1019.13 1019.45 1019.81 1020.13 1020.25 1020.37 1020.49 1020.61 1020.69 1020.89 1020.97 1020.97 1021.17 1021.33 1021.57 1021.41 1021.29 1021.41 1021.49 1021.61 1021.73 1021.89 1021.93 1022.01 1021.97 1022.01 1022.01 1022.17 1022.29 1022.29 1021.97 1021.85 1021.93 1021.81 1021.77 1022.25
1016.29 1016.49 1016.65 1016.81 1016.97 1017.05 1017.17 1017.37 1017.57 1017.69 1017.61 1017.41 1017.41 1017.45 1017.53 1017.57 1017.61 1017.61 1017.65 1017.81 1018.05 1018.29 1018.49 1018.65 1019.05 1019.13 1019.25 1019.33 1019.61 1020.01 1020.25 1020.57 1020.81 1020.85 1020.85 1020.97 1021.09 1021.01 1020.93 1020.97 1021.33 1021.81 1022.29 1021.85 1021.45 1021.53 1021.57 1021.69 1021.81 1022.05 1022.25 1022.37 1022.37 1022.29 1022.09 1022.33 1022.21 1022.05 1022.05 1021.89 1021.57 1021.61 1022.01
1016.25 1016.25 1016.53 1016.77 1016.97 1017.13 1017.13 1017.37 1017.53 1017.61 1017.61 1017.61 1017.61 1017.49 1017.61 1017.61 1017.57 1017.65 1017.69 1017.73 1018.05 1018.33 1018.41 1018.85 1019.21 1019.45 1019.49 1019.57 1019.69 1019.85 1019.97 1020.09 1020.61 1021.05 1021.13 1021.13 1021.09 1021.09 1021.05 1021.01 1021.45 1022.01 1021.45 1021.13 1021.13 1021.33 1021.57 1021.73 1021.97 1022.17 1022.33 1022.45 1022.49 1022.65 1022.65 1022.37 1022.33 1022.25 1022.21 1022.13 1022.13 1022.09 1021.93
1016.25 1016.33 1016.41 1016.45 1016.77 1017.05 1017.09 1017.41 1017.57 1017.53 1017.69 1017.65 1017.57 1017.65 1017.73 1017.81 1017.65 1017.57 1017.69 1017.73 1017.85 1018.09 1018.25 1018.73 1019.17 1019.53 1019.65 1019.73 1019.81 1019.69 1019.57 1019.81 1020.13 1020.49 1020.73 1020.77 1020.73 1020.73 1020.93 1021.33 1021.17 1020.77 1021.09 1021.29 1021.13 1020.93 1021.01 1021.73 1022.29 1022.41 1022.53 1022.65 1022.77 1022.77 1022.73 1022.81 1022.77 1022.81 1022.81 1022.53 1022.49 1022.37 1022.33
1016.57 1016.53 1016.45 1016.53 1016.69 1016.85 1016.97 1017.09 1017.25 1017.37 1017.49 1017.65 1017.77 1017.81 1017.61 1017.61 1017.53 1017.53 1017.57 1017.61 1017.65 1017.69 1017.93 1018.77 1019.17 1019.49 1019.61 1019.65 1019.73 1019.73 1019.41 1019.57 1019.85 1020.05 1020.25 1020.33 1020.49 1020.69 1020.97 1021.49 1020.97 1020.73 1020.65 1020.77 1020.77 1020.77 1020.65 1021.37 1021.93 1022.25 1022.33 1022.29 1022.29 1022.77 1022.85 1022.77 1022.77 1022.85 1022.85 1022.85 1022.81 1022.81 1022.89
1016.89 1016.89 1016.89 1016.61 1016.65 1016.77 1016.89 1016.93 1016.97 1017.05 1017.21 1017.37 1017.65 1017.77 1018.01 1017.81 1017.77 1017.73 1017.61 1017.53 1017.53 1017.57 1017.57 1018.33 1018.93 1019.37 1019.65 1019.69 1019.65 1019.65 1019.45 1019.49 1019.69 1019.89 1019.85 1020.17 1020.57 1020.69 1020.57 1020.61 1020.57 1020.45 1020.73 1020.85 1021.21 1021.41 1021.05 1021.13 1021.53 1021.73 1021.89 1021.93 1022.05 1022.29 1022.41 1022.65 1022.73 1022.65 1022.57 1022.61 1022.69 1022.85 1022.97
1017.21 1017.05 1016.89 1016.81 1016.81 1016.77 1016.77 1016.89 1017.01 1017.01 1017.09 1017.13 1017.09 1017.17 1017.29 1017.61 1017.81 1017.69 1017.57 1017.57 1017.57 1017.61 1017.49 1018.09 1018.45 1018.93 1019.21 1019.33 1019.61 1019.69 1019.57 1019.77 1019.89 1019.77 1019.89 1020.01 1020.05 1020.13 1020.21 1020.29 1020.33 1020.49 1020.81 1021.13 1021.69 1021.73 1021.61 1021.29 1021.33 1021.61 1021.77 1021.81 1022.13 1022.69 1023.33 1023.93 1023.89 1023.57 1023.29 1023.21 1023.37 1023.53 1023.77
1017.45 1017.33 1017.13 1017.01 1016.85 1016.73 1016.65 1016.69 1016.73 1016.73 1016.93 1017.01 1017.09 1017.05 1017.41 1017.49 1017.73 1018.13 1017.93 1017.41 1017.17 1017.37 1017.77 1018.41 1018.33 1018.49 1018.89 1019.37 1019.81 1019.81 1019.53 1019.49 1019.57 1019.73 1019.89 1019.69 1019.61 1019.85 1020.25 1020.41 1020.13 1020.49 1020.93 1021.37 1021.89 1021.89 1021.73 1021.57 1021.21 1021.41 1021.61 1021.93 1022.25 1022.49 1023.09 1023.69 1023.89 1023.89 1023.85 1023.93 1024.09 1024.21 1024.29
1017.73 1017.69 1017.45 1017.17 1016.93 1016.85 1016.69 1016.57 1016.41 1016.37 1016.61 1016.65 1016.69 1016.73 1016.65 1016.89 1017.37 1017.21 1016.89 1016.97 1017.25 1017.61 1018.33 1018.53 1018.77 1018.69 1018.89 1019.29 1019.45 1019.17 1018.77 1018.69 1019.05 1019.05 1019.57 1019.49 1019.49 1020.13 1020.85 1020.97 1020.57 1020.49 1021.05 1021.53 1022.05 1021.93 1021.93 1021.73 1021.25 1021.45 1021.73 1022.05 1022.25 1022.41 1022.93 1023.29 1023.53 1023.93 1024.13 1024.09 1024.13 1024.21 1024.25
1017.97 1017.89 1017.77 1017.49 1017.33 1017.17 1016.89 1016.61 1016.37 1016.25 1016.29 1016.29 1016.41 1016.29 1016.29 1016.65 1017.05 1016.49 1016.33 1016.45 1017.13 1017.85 1018.21 1018.37 1018.85 1019.25 1019.25 1019.25 1019.21 1018.45 1017.89 1018.13 1018.57 1018.81 1019.29 1019.21 1019.37 1019.85 1020.57 1021.13 1021.33 1021.17 1021.41 1021.97 1022.13 1022.05 1022.01 1021.85 1021.25 1021.45 1021.65 1021.89 1021.97 1022.01 1022.33 1022.73 1022.97 1023.29 1023.61 1023.77 1023.97 1024.13 1024.17
1018.01 1017.97 1017.85 1017.73 1017.53 1017.33 1017.05 1016.73 1016.45 1016.25 1016.17 1016.01 1016.01 1016.01 1016.09 1016.05 1016.13 1016.13 1016.25 1016.49 1016.97 1017.41 1017.89 1018.05 1018.41 1018.81 1019.17 1019.01 1018.73 1018.09 1017.45 1017.65 1017.89 1018.45 1018.77 1018.93 1019.21 1019.73 1020.29 1021.09 1021.89 1022.25 1022.25 1022.33 1022.25 1022.17 1022.09 1021.97 1021.49 1021.25 1021.49 1021.45 1021.45 1021.45 1022.09 1022.45 1022.81 1022.85 1022.81 1022.93 1022.93 1023.13 1023.17
1018.05 1017.97 1017.85 1017.69 1017.49 1017.33 1017.09 1016.89 1016.53 1016.33 1016.21 1016.01 1015.85 1015.77 1015.81 1015.85 1015.85 1015.93 1016.05 1016.29 1016.41 1016.69 1016.93 1017.37 1017.97 1018.45 1018.93 1018.85 1018.49 1018.33 1017.89 1017.73 1017.73 1018.09 1018.29 1018.61 1018.97 1019.57 1020.05 1020.65 1021.73 1022.57 1022.41 1022.37 1022.33 1022.37 1022.33 1022.21 1022.05 1022.05 1022.41 1022.73 1023.05 1022.89 1022.41 1022.45 1023.09 1023.33 1023.21 1023.09 1023.09 1023.09 1023.01
1018.21 1018.05 1017.89 1017.69 1017.49 1017.29 1017.01 1016.77 1016.61 1016.33 1016.09 1016.09 1016.09 1016.13 1015.89 1015.81 1015.81 1015.85 1015.85 1016.05 1016.29 1016.81 1016.97 1017.25 1017.73 1018.69 1019.29 1019.21 1018.65 1019.33 1018.97 1018.89 1018.69 1018.57 1018.33 1018.53 1018.73 1019.37 1019.93 1020.81 1021.69 1022.61 1022.57 1022.53 1022.53 1022.53 1022.57 1022.57 1022.65 1022.81 1023.57 1023.57 1023.45 1023.09 1022.85 1022.65 1022.61 1022.73 1022.57 1022.57 1022.41 1022.41 1022.41
1018.21 1017.89 1017.65 1017.53 1017.41 1017.25 1017.01 1016.73 1016.49 1016.29 1016.13 1016.01 1016.05 1016.01 1015.93 1015.77 1015.81 1016.01 1016.21 1016.25 1016.21 1016.21 1016.61 1017.49 1017.81 1018.49 1018.65 1019.25 1019.45 1018.89 1018.93 1019.25 1019.73 1019.77 1019.21 1018.57 1018.61 1019.21 1020.13 1021.25 1022.41 1022.81 1022.69 1022.73 1022.73 1022.77 1022.85 1023.05 1023.17 1023.65 1023.77 1023.57 1023.53 1023.49 1023.25 1022.61 1022.53 1022.69 1022.61 1022.49 1022.61 1022.73 1022.73
1017.97 1017.73 1017.49 1017.29 1017.13 1016.97 1016.77 1016.61 1016.41 1016.21 1015.93 1015.73 1015.57 1015.49 1015.49 1015.57 1015.77 1015.93 1016.21 1016.53 1016.53 1016.53 1016.89 1017.45 1018.09 1018.17 1018.41 1018.57 1018.77 1019.29 1019.65 1020.01 1020.33 1019.45 1018.53 1018.37 1018.65 1019.49 1020.53 1021.49 1022.45 1022.85 1022.85 1022.93 1023.05 1023.09 1023.17 1023.25 1023.57 1023.85 1023.77 1023.77 1023.69 1023.57 1023.05 1022.53 1022.53 1022.49 1022.69 1022.81 1022.85 1022.73 1022.57
Wind_Speed
4 5 4 4 4 3 4 3 3 3 2 4 2 2 3 3 2 2 1 0 2 4 4 5 4 3 4 3 3 3 3 3 3 0 3 3 4 4 4 7 8 6 2 1 4 3 2 6 5 5 5 5 5 5 6 6 6 5 4 4 6 7 6
5 4 4 4 4 4 3 2 2 4 4 3 4 3 2 3 2 1 1 1 1 1 2 4 4 3 3 5 3 2 3 2 2 2 1 1 3 2 4 3 6 5 3 2 3 2 4 5 5 5 5 5 5 5 4 4 5 5 5 4 4 6 6
4 4 4 4 4 3 4 3 3 3 4 3 3 2 1 3 3 3 3 2 2 3 4 5 5 4 4 4 4 3 3 2 2 2 2 2 2 1 4 4 3 7 6 1 1 1 6 4 4 6 5 6 5 4 3 4 5 5 5 5 6 7 6
4 4 4 4 4 3 4 4 3 3 3 4 3 3 3 4 4 4 3 3 4 3 3 3 3 4 4 4 5 5 5 4 3 3 2 2 3 2 3 4 2 2 0 4 5 6 5 3 5 5 6 6 6 5 4 3 3 6 6 5 6 6 6
5 4 4 4 5 4 4 4 3 3 3 4 3 3 3 4 4 3 2 3 5 4 4 4 3 4 3 4 5 5 5 5 5 4 3 2 3 3 1 4 3 1 2 1 3 4 2 6 3 5 5 6 7 6 5 3 5 5 6 6 6 6 6
6 5 4 4 3 4 4 4 4 4 4 4 3 4 4 3 3 3 3 3 5 5 5 5 5 5 3 4 5 5 5 5 5 5 4 5 4 4 3 2 2 3 3 2 1 1 2 5 3 4 5 4 5 5 5 5 4 6 5 6 5 6 6
6 5 4 4 3 3 3 4 4 5 4 4 4 4 3 3 4 4 5 5 5 6 5 6 5 5 5 6 6 6 7 5 6 6 6 5 5 3 1 2 4 5 5 3 3 2 3 3 3 2 4 5 3 5 5 5 5 5 5 5 5 6 5
5 5 4 4 3 4 4 4 4 4 5 4 4 4 4 5 4 4 4 5 5 5 5 5 5 5 4 7 6 6 6 6 6 6 6 6 4 5 5 4 3 3 2 3 1 1 2 1 2 3 3 4 2 2 4 5 5 5 5 4 5 5 5
5 5 5 4 4 3 4 4 4 5 5 5 4 4 4 4 5 5 5 5 5 5 5 5 5 5 5 5 5 5 6 5 6 7 6 7 7 6 5 3 3 5 3 2 1 3 2 2 3 2 2 3 4 4 2 3 3 5 2 4 5 5 5
7 6 5 6 5 4 4 4 4 5 6 5 5 4 4 4 4 5 6 6 5 5 5 6 6 5 5 5 5 6 6 6 6 7 6 6 5 5 5 5 5 4 5 5 5 3 4 2 4 3 3 3 2 4 4 4 3 3 3 4 3 4 4
8 7 7 6 5 5 4 4 4 5 5 5 5 4 5 5 5 6 6 6 5 5 5 5 6 5 5 5 5 6 6 6 6 6 6 6 5 5 4 4 5 6 6 5 5 4 3 3 2 1 3 1 3 2 4 5 5 2 3 1 4 4 3
8 8 7 7 5 5 5 5 4 5 6 5 4 4 6 6 5 5 6 6 5 6 5 5 5 5 6 5 5 5 5 5 6 6 6 5 5 5 5 6 5 5 4 5 4 4 3 2 2 1 3 4 4 6 4 4 4 3 4 3 3 4 3
9 9 8 7 6 6 6 5 5 5 6 5 4 4 5 6 6 6 6 6 6 6 6 5 5 6 5 5 5 6 5 6 7 7 6 5 5 5 5 5 5 5 4 4 4 3 3 4 3 4 3 3 3 4 2 1 2 5 3 3 2 2 3
9 9 9 8 7 7 6 5 4 3 4 5 5 5 6 6 6 6 7 6 6 6 6 6 5 5 6 5 6 6 6 6 7 6 6 5 6 5 5 6 5 4 2 3 3 2 2 3 2 2 3 2 3 1 2 3 3 4 3 1 1 2 2
9 8 9 8 7 8 7 6 5 5 4 5 6 7 7 6 6 6 7 7 7 6 6 6 5 5 6 6 6 4 5 5 6 6 4 6 5 3 3 4 5 3 1 1 2 5 5 4 3 4 3 1 2 2 3 1 3 3 3 1 1 1 2
9 9 9 8 7 8 8 8 7 7 7 6 5 6 7 6 6 7 6 7 7 7 7 6 5 6 6 6 6 5 4 5 6 5 4 5 5 5 3 3 3 3 1 0 2 3 2 2 5 2 2 2 3 1 2 4 2 4 2 3 1 3 1
9 9 8 7 8 8 8 8 8 8 7 7 6 5 7 7 6 6 6 7 7 7 7 6 5 6 7 7 6 6 5 5 6 5 5 5 6 5 4 3 3 3 2 2 3 1 2 0 4 4 2 3 1 1 2 1 3 4 3 1 1 4 5
7 7 7 7 8 9 9 8 7 8 7 7 7 6 6 7 7 7 6 7 7 7 7 7 6 5 5 4 5 5 6 6 5 4 4 3 3 4 5 3 5 5 3 3 2 2 3 1 5 3 3 3 4 4 2 2 3 2 3 2 2 2 5
4 6 8 8 7 8 8 8 8 7 8 7 8 7 7 7 7 8 8 8 8 8 8 7 7 7 7 6 5 5 5 5 5 5 5 4 6 4 3 5 4 5 5 4 4 2 1 3 3 2 3 3 3 7 2 2 2 3 4 3 2 3 3
6 7 8 7 6 7 8 8 8 8 7 7 8 8 8 8 7 8 9 9 9 9 9 9 8 8 8 8 7 6 5 5 5 4 5 5 5 5 5 5 5 5 6 5 4 4 4 3 2 3 4 2 5 3 2 3 4 3 3 3 3 3 4
7 8 7 6 6 7 8 8 8 8 7 8 8 9 8 9 8 8 9 9 9 9 9 9 9 9 9 8 7 7 6 4 5 4 4 3 4 5 5 6 6 5 6 6 6 6 5 6 4 5 4 4 4 3 3 3 4 5 4 4 4 4 5
6 6 6 6 6 6 6 6 6 7 8 8 7 8 9 9 9 9 9 9 9 9 8 8 8 9 9 9 7 6 5 6 4 4 4 5 1 2 4 6 6 6 1 6 9 7 6 5 1 5 5 5 5 4 4 4 4 5 5 5 5 5 5
4 5 5 6 6 6 5 6 5 6 7 8 8 9 9 9 9 10 10 10 9 8 8 7 5 5 5 9 9 7 5 4 3 2 2 2 2 2 4 3 2 8 5 5 5 3 2 2 3 3 3 3 4 6 5 5 5 7 7 6 7 6 5
4 5 5 5 6 6 6 6 6 7 9 7 8 8 8 9 9 9 10 9 9 8 8 4 9 10 11 11 9 7 6 4 4 3 2 2 2 3 4 5 3 3 6 3 4 4 4 3 3 2 5 3 3 3 5 7 7 7 7 8 8 6 5
3 4 4 6 5 6 7 6 7 7 7 7 7 8 8 9 8 9 9 10 10 9 9 10 12 9 10 11 8 7 6 5 4 4 2 3 3 3 4 3 7 9 8 4 3 8 6 5 2 3 4 5 5 6 6 2 2 3 5 6 6 6 8
1 1 3 4 5 6 6 7 8 8 9 8 8 9 9 9 10 9 9 11 12 11 8 14 14 12 10 10 7 5 6 5 7 7 8 7 7 5 2 5 5 3 5 2 3 6 7 6 6 7 7 6 7 6 6 8 6 2 3 5 4 5 4
3 2 2 2 3 5 6 7 7 7 8 9 9 9 10 11 10 11 10 11 12 11 9 13 16 15 13 12 11 7 6 6 6 7 7 8 4 1 6 8 7 5 4 3 1 1 2 8 6 5 5 5 5 5 5 7 5 6 2 2 4 4 5
5 5 5 4 3 4 5 5 6 6 7 8 9 10 10 11 7 8 11 12 11 11 9 16 16 15 12 11 12 8 6 6 6 7 7 5 5 7 5 5 5 4 3 2 3 4 3 5 5 4 5 5 5 4 2 2 3 1 2 2 2 2 2
5 5 4 4 5 5 5 5 6 6 6 7 7 8 9 8 10 12 13 13 13 13 7 16 18 17 16 14 12 6 6 5 7 7 6 7 8 6 6 6 6 4 3 3 4 5 5 3 5 4 6 6 6 6 5 3 3 7 8 6 6 5 5
6 6 5 5 6 6 6 6 6 6 7 7 8 9 9 9 6 9 12 14 13 10 2 7 15 17 15 15 10 8 10 10 9 9 8 8 7 6 4 3 1 6 4 4 4 5 4 9 3 5 5 6 5 4 5 4 6 8 9 10 10 9 8
7 7 7 7 7 6 6 7 7 6 7 8 9 9 9 8 9 12 12 10 13 4 6 7 11 12 15 16 15 13 13 10 9 11 9 9 7 7 6 9 8 5 6 5 4 6 6 7 3 5 5 5 5 5 5 5 4 4 6 7 7 6 6
7 7 7 8 7 8 8 7 7 8 7 8 8 9 10 7 9 11 10 10 3 3 6 6 10 12 15 18 17 13 13 12 12 11 10 9 8 8 7 9 12 10 8 6 6 7 8 8 3 5 5 5 5 6 6 6 5 5 4 4 4 3 4
7 7 7 8 8 8 8 8 8 8 8 8 8 9 10 10 11 10 9 8 6 8 9 8 12 15 17 19 21 12 11 12 13 11 10 9 9 8 8 7 8 9 9 8 8 9 10 11 6 4 4 5 4 1 8 4 5 4 0 1 2 3 4
8 8 8 8 8 8 8 8 9 8 8 8 9 9 10 10 11 10 9 9 9 9 10 10 10 18 17 16 18 10 8 9 12 12 11 10 9 9 8 7 6 6 8 10 10 10 11 12 12 8 7 7 5 5 4 4 4 2 3 4 4 5 5
9 8 9 9 9 9 9 9 9 9 8 8 10 11 10 10 10 10 10 8 8 8 7 7 7 12 9 12 11 8 4 8 6 3 7 9 10 9 9 7 7 5 8 10 10 11 12 12 12 8 6 6 8 10 5 3 2 4 3 3 4 4 4
10 9 9 9 10 10 10 10 10 10 10 10 10 12 11 9 8 5 3 3 4 7 5 7 11 8 9 1 5 7 9 8 13 7 6 8 9 10 9 9 8 9 10 11 11 11 11 11 9 6 5 7 6 5 4 3 1 3 4 3 4 5 6
11 10 11 10 11 11 10 10 10 10 10 10 10 11 10 9 8 7 7 5 3 4 5 6 8 12 10 11 11 3 8 13 12 7 8 7 9 10 10 9 9 11 11 11 11 10 10 9 7 5 2 1 3 4 3 2 3 2 2 4 4 5 5
Wind_Direction
102 109 112 95 83 94 102 123 122 129 147 109 114 120 130 139 138 143 183 274 213 166 181 173 178 205 202 180 199 201 184 189 194 281 239 162 215 166 178 176 164 242 200 314 279 136 156 144 131 84 81 61 72 52 56 64 77 79 49 37 68 72 60
115 129 124 118 108 95 125 133 121 106 97 98 109 116 115 108 136 92 56 108 27 81 138 116 144 129 140 149 160 153 151 185 159 132 209 186 227 158 177 190 163 171 182 209 249 76 244 134 137 127 109 97 83 70 63 77 88 76 62 60 83 89 91
130 130 129 117 118 141 117 104 111 132 121 122 128 103 117 100 81 110 94 71 78 28 35 70 89 114 124 128 129 117 118 121 113 131 184 191 233 138 203 166 191 149 157 226 300 296 242 155 134 139 135 136 112 102 125 123 101 90 89 71 54 58 60
130 141 131 144 138 148 137 147 160 135 141 124 120 110 66 76 65 73 101 116 87 71 79 103 114 125 129 126 123 121 115 115 132 118 130 87 241 136 242 154 229 78 160 173 155 196 191 143 120 135 154 116 112 113 75 63 96 109 109 98 75 68 77
141 157 145 149 156 157 148 154 134 137 129 126 124 107 92 88 109 109 92 77 74 81 80 82 89 99 118 123 129 133 125 107 112 123 127 124 126 125 85 61 76 97 82 168 157 195 214 131 170 142 129 134 138 117 121 101 85 75 49 57 82 88 68
154 148 146 151 152 139 158 150 153 140 138 140 119 111 109 121 114 116 105 90 87 64 68 78 75 78 85 115 118 122 129 134 135 138 126 95 63 79 83 123 165 146 164 13 48 73 25 113 169 162 127 140 103 123 133 151 106 66 65 70 60 52 69
150 150 146 145 149 145 144 149 155 144 136 117 122 119 129 118 92 76 70 71 81 90 79 66 63 80 102 87 90 92 91 82 89 88 97 96 91 96 98 69 42 61 37 37 34 6 97 160 166 138 111 100 164 151 151 146 135 118 91 74 62 64 60
136 146 142 132 144 140 149 158 140 131 123 122 108 94 92 95 103 97 96 91 81 78 83 97 95 72 83 101 91 91 92 91 93 92 83 92 91 71 59 72 97 79 71 106 174 183 152 170 156 125 138 134 193 132 131 92 91 74 113 64 61 81 74
134 132 127 131 129 133 140 143 133 124 113 109 107 114 114 113 114 120 113 102 100 99 95 88 86 85 80 97 95 92 95 96 98 102 102 83 79 79 76 75 83 83 87 80 84 26 2 100 72 95 120 148 152 125 98 93 84 81 24 96 88 60 91
137 137 132 127 129 132 129 129 131 121 121 121 117 114 111 109 109 105 104 102 98 90 85 83 88 97 94 93 94 85 79 74 71 71 74 85 81 74 70 73 90 94 65 52 50 60 48 57 119 158 177 184 192 121 169 130 105 107 78 6 85 92 65
142 133 129 137 137 137 126 100 102 134 127 123 131 125 115 109 109 110 112 107 100 98 100 94 94 101 104 96 92 87 84 94 98 93 86 83 82 84 81 74 66 65 53 67 70 66 63 58 105 143 290 106 326 268 177 138 117 74 104 35 31 90 109
140 137 138 141 147 150 140 133 134 122 127 133 129 136 141 132 124 118 118 119 113 107 100 102 104 97 97 98 93 96 101 98 95 96 88 89 90 87 84 84 86 82 81 83 96 93 106 123 132 178 57 14 37 4 68 102 140 62 7 79 44 30 54
147 144 148 152 161 162 149 146 137 150 146 147 150 161 149 140 138 136 122 120 123 117 116 109 107 109 108 110 113 103 106 115 111 111 121 124 117 110 106 96 84 96 118 125 91 75 59 32 20 70 73 82 58 31 30 326 76 108 48 69 88 119 112
146 149 155 161 157 157 155 153 155 180 153 147 171 156 148 151 151 146 142 138 126 123 117 120 119 118 116 111 104 114 123 118 118 108 106 108 113 128 107 98 100 82 34 80 116 122 118 112 91 46 64 93 81 45 39 81 104 116 110 39 261 67 40
161 154 155 159 153 155 164 163 172 188 165 169 190 162 157 154 157 159 147 141 138 135 134 126 133 121 114 112 116 120 121 130 112 112 124 125 113 84 111 123 112 103 67 74 190 196 145 193 168 177 158 197 123 69 305 126 130 140 121 211 177 120 127
175 164 156 160 164 163 168 178 187 183 174 178 181 166 152 157 169 159 154 153 149 145 141 138 129 131 126 134 134 130 125 107 118 127 138 136 146 125 137 124 130 120 150 142 251 349 78 250 247 145 75 44 58 5 41 353 339 120 180 145 223 218 157
185 183 182 183 188 191 173 178 184 181 178 170 172 167 153 172 166 167 165 158 150 154 147 144 145 143 149 140 142 139 135 136 137 151 153 167 140 146 148 157 147 143 166 180 254 114 231 241 305 59 149 136 187 73 47 323 271 18 77 199 156 272 129
196 200 208 209 200 196 200 199 197 187 179 180 170 175 171 173 173 169 172 168 160 162 154 159 156 150 134 152 139 141 154 152 152 156 166 162 127 157 157 189 173 170 174 199 197 232 195 236 270 123 221 156 182 136 173 265 282 186 216 257 136 335 339
208 219 220 214 210 194 205 211 203 203 185 187 178 180 187 181 184 179 180 183 176 173 172 169 168 165 162 162 167 164 171 161 171 179 164 194 171 195 178 193 189 189 190 208 205 226 200 196 254 243 233 256 296 139 194 174 256 314 308 293 265 281 199
206 221 219 210 210 200 206 212 205 201 196 193 188 191 191 193 195 191 190 188 187 185 179 177 179 178 171 175 172 175 169 173 182 188 181 186 208 191 203 209 212 208 213 214 230 215 219 238 258 287 316 293 293 113 182 232 247 207 218 280 291 270 291
190 216 210 208 213 203 202 206 212 215 208 203 200 206 199 200 197 205 197 194 190 188 182 185 178 177 178 175 175 171 178 170 190 191 206 227 215 217 215 221 223 231 230 231 227 223 221 225 226 249 236 249 267 278 247 252 266 283 259 260 261 286 278
191 200 204 212 215 209 213 221 212 224 223 215 213 219 213 208 201 206 205 198 195 186 189 184 180 184 181 180 168 165 163 176 196 194 170 219 359 2 328 332 315 279 12 73 77 63 64 51 268 238 234 250 245 259 250 258 267 248 258 255 260 255 266
199 213 210 210 213 215 222 232 232 229 231 228 221 222 225 219 214 211 213 199 202 184 186 194 157 169 162 183 171 149 142 128 115 85 27 25 17 331 293 283 316 335 79 99 87 79 52 50 20 10 350 352 287 244 231 252 263 267 272 264 271 283 282
194 199 210 218 225 227 220 225 239 240 241 232 231 225 227 221 219 216 215 206 198 189 193 142 120 120 109 114 138 133 116 95 45 4 46 30 328 263 245 225 74 22 282 231 215 189 208 225 252 61 90 97 57 335 240 236 243 259 270 284 294 282 272
208 204 196 208 221 243 238 238 238 237 242 239 231 235 226 226 218 217 220 213 202 198 205 138 152 145 146 152 159 157 158 139 136 231 236 241 230 246 267 286 151 200 227 231 212 189 203 203 120 95 101 98 94 64 45 29 325 298 303 277 276 280 290
314 214 217 220 197 222 230 230 240 235 231 232 237 230 217 224 225 220 219 224 215 203 214 154 163 165 166 174 182 197 180 171 182 196 207 203 213 220 27 347 292 266 104 98 260 235 194 135 94 97 122 107 79 83 88 69 71 52 336 323 336 314 309
318 298 280 232 226 234 238 239 236 235 238 240 240 241 237 229 228 226 223 225 222 217 208 155 173 180 178 177 183 205 210 197 205 209 207 212 183 255 144 221 246 229 190 185 185 351 215 129 144 151 162 189 173 113 100 111 116 112 123 302 331 325 29
343 343 315 309 273 256 260 270 259 246 240 235 232 230 240 240 245 244 237 231 232 228 218 162 171 177 179 182 186 196 213 223 218 222 217 166 169 213 201 216 229 216 166 126 54 5 309 152 149 159 180 177 173 183 137 68 51 16 154 196 239 294 46
352 330 321 305 285 266 259 256 259 257 251 251 247 239 237 217 227 239 239 235 232 232 213 161 172 174 177 184 180 194 210 228 224 220 200 200 181 187 192 190 192 170 133 115 59 357 334 329 161 170 166 160 131 95 74 58 30 40 39 44 46 50 58
341 328 324 309 295 290 278 266 258 252 246 244 246 242 239 244 244 248 244 240 238 233 281 172 176 182 177 177 168 197 212 204 204 195 204 189 175 138 80 17 142 134 123 100 52 355 358 342 195 162 147 141 145 148 131 110 73 64 74 82 86 86 86
326 330 320 316 325 319 306 287 274 253 247 245 243 242 248 235 234 239 237 230 242 220 260 225 209 189 184 179 188 198 204 191 192 194 178 184 146 117 73 42 9 128 118 110 42 15 5 329 210 153 161 162 166 159 143 147 153 104 101 96 96 113 130
315 317 319 319 325 316 306 298 285 274 255 248 252 254 247 245 249 246 243 245 94 144 211 176 190 201 194 187 197 206 196 181 189 179 172 170 140 130 109 64 46 52 75 75 44 36 17 348 226 174 178 193 178 183 150 160 160 160 170 181 178 183 192
305 304 306 309 308 311 310 301 290 282 272 258 251 247 248 250 248 246 240 236 193 194 209 210 184 198 200 195 202 219 194 192 191 177 177 161 147 134 122 103 71 60 83 74 62 45 30 19 336 177 214 241 252 107 128 127 56 18 352 283 285 220 269
307 304 298 298 297 291 293 297 297 288 280 272 264 259 255 254 254 253 245 242 231 214 207 199 186 191 204 200 200 233 201 213 186 185 174 159 149 141 141 123 107 85 88 81 74 64 53 42 35 50 45 60 49 359 346 123 110 105 264 263 250 256 248
297 296 290 286 285 282 280 282 285 284 276 277 275 267 266 261 256 255 253 236 227 233 215 180 178 168 208 227 181 57 2 356 333 169 179 165 151 147 134 130 126 109 101 94 88 78 68 60 57 74 59 59 37 34 21 350 223 206 236 248 267 275 285
284 281 280 278 276 276 277 274 273 274 272 266 264 265 261 253 249 243 252 247 237 232 166 100 123 146 128 77 347 16 8 8 304 258 215 177 153 136 117 110 108 122 110 102 92 89 92 94 83 82 90 58 50 7 301 254 327 312 277 292 309 304 298
287 280 275 273 269 269 269 271 271 270 272 265 255 250 248 240 233 226 217 217 196 136 134 126 138 147 152 155 108 49 352 332 306 241 204 165 134 113 125 128 130 128 110 100 91 82 75 75 97 122 82 103 336 296 263 246 238 250 295 286 279 280 289